This demonstration page uses our WeatherBlox Daily Observations layout. Learn more.

Left ArrowRight Arrow

39.08367, -84.50855

Hourly Observations for April 19, 2021

Temp ( °F °C ) Dew Point ( °F °C ) Humidity (%) Winds ( mph kmh ) Pressure ( in mb ) Visibility ( mi km ) Precip ( " mm )
12:53 am 00:53 Cloudy 45 7.2 39 3.9 80 80 NE 3 6 29.91 1013 10 16.0934 0 0
1:53 am 01:53 Cloudy 47 8.3 40 4.4 77 77 NNE 3 6 29.9 1013 10 16.0934 0 0
2:53 am 02:53 undefined 47 8.3 39 3.9 74 74 Calm 29.9 1012 10 16.0934 0 0
3:53 am 03:53 Mostly Cloudy 46 7.8 41 5 83 83 Calm 29.89 1012 10 16.0934 0 0
4:53 am 04:53 Cloudy 46 7.8 42 5.6 86 86 Calm 29.89 1012 10 16.0934 0 0
5:53 am 05:53 Cloudy 47 8.3 42 5.6 83 83 Calm 29.9 1013 10 16.0934 0 0
6:53 am 06:53 Clear 43 6.1 41 5 93 93 Calm 29.92 1013 10 16.0934 0 0
7:53 am 07:53 Mostly Sunny 44 6.7 41 5 89 89 SSW 3 6 29.94 1014 10 16.0934 0 0
8:53 am 08:53 Sunny 51 10.6 43 6.1 74 74 S 5 7 29.94 1014 10 16.0934 0 0
9:53 am 09:53 Sunny 55 12.8 43 6.1 64 64 VRB 5 7 29.93 1014 10 16.0934 0 0
10:53 am 10:53 Sunny 60 15.6 42 5.6 52 52 W 6 9 29.93 1014 10 16.0934 0 0
11:53 am 11:53 Sunny 63 17.2 40 4.4 43 43 WSW 9 15 29.92 1013 10 16.0934 0 0
12:53 pm 12:53 Sunny 65 18.3 39 3.9 39 39 W 14 22 29.91 1013 10 16.0934 0 0
1:53 pm 13:53 Mostly Cloudy 65 18.3 36 2.2 34 34 WSW 15 24 29.89 1012 10 16.0934 0 0
2:53 pm 14:53 Mostly Cloudy 66 18.9 36 2.2 33 33 SW 14 22 29.88 1012 10 16.0934 0 0
3:53 pm 15:53 Mostly Cloudy 68 20 37 2.8 32 32 W 16 26 29.87 1011 10 16.0934 0 0
4:53 pm 16:53 Sunny 68 20 37 2.8 32 32 WSW 16 26 29.86 1011 10 16.0934 0 0
5:53 pm 17:53 Partly Cloudy 67 19.4 36 2.2 32 32 SW 15 24 29.86 1011 10 16.0934 0 0
6:53 pm 18:53 Mostly Sunny 65 18.3 35 1.7 33 33 WSW 15 24 29.87 1012 10 16.0934 0 0
7:53 pm 19:53 Mostly Sunny 62 16.7 37 2.8 40 40 WSW 9 15 29.87 1012 10 16.0934 0 0
8:53 pm 20:53 Partly Cloudy 58 14.4 37 2.8 46 46 SW 8 13 29.89 1012 10 16.0934 0 0
9:53 pm 21:53 Mostly Cloudy 54 12.2 41 5 62 62 SW 6 9 29.91 1013 10 16.0934 0 0
10:53 pm 22:53 Clear 49 9.4 40 4.4 71 71 SSW 7 11 29.93 1013 10 16.0934 0 0
11:53 pm 23:53 Clear 48 8.9 41 5 77 77 SW 6 9 29.93 1014 10 16.0934 0 0

Powered by AerisWeather